STARLINK-35311 (66032 NORAD) Tracking and Keplerian Element Data

This shows tracking and keplerian element data for the satellite.

Feedback or suggestion? Click here.




ElementValue
Catalog66032
NameSTARLINK-35311
Epoch Orbit1124
Epoch Day354.06849309
Epoch Year2025
RAAN113.8371
Inclination53.1618
Eccentricity9.55E-05
Argument of Perigee81.31
Mean Anonmoly278.8009
Mean Motion15.30177244
Decay Rate0.00020604
L11 66032U 25232AD 25354.06849309 .00020604 00000+0 70636-3 0 9995
L22 66032 53.1618 113.8371 0000955 81.3100 278.8009 15.30177244 11245



Live tracking and technical data element details for STARLINK-35311 (NORAD 66032). STARLINK-35311 can be tracked NOW for your location showing map with azimuth and elevation plus other details from your city location.







IsCatalogInMostPopularTable: catalog: 66032, numindb: 3
Update: records affected: 1



GetName: 66032 STARLINK-35311

Hit Count: updated at: Tue, 10 Feb 2026 04:01:28 GMT